Location: Stigler
(35.2540°N, 95.1230°W)
Time: 15:18:02
(UTC-05:00)

Daily predictions for brighter satellites

Satellite Brightness Start Highest point End
(mag) Time Altitude Azimuth Time Altitude Azimuth Time Altitude Azimuth
Resurs 1-3 4.4 20:25:20 10° SE 20:29:16 33° ENE 20:33:12 10° N
DELTA 2 R/B (1) 4.0 20:25:29 10° WNW 20:31:03 62° N 20:36:37 10° E
NOSS 3-1 (C) 4.3 20:29:50 10° SW 20:35:22 53° NW 20:41:32 10° NNE
Cosmos 1812 2.7 20:32:07 10° N 20:35:59 76° E 20:39:51 10° S
Meteor 1-25 Rocket 4.4 20:32:05 10° S 20:37:56 89° E 20:43:47 10° N
Cosmos 2360 4.2 20:32:54 10° SSW 20:38:35 78° ESE 20:44:17 10° NNE
Cosmos 1092 Rocket 4.3 20:32:32 10° SSW 20:38:39 72° W 20:44:49 10° N
SeaSat 1 2.6 20:34:57 10° NE 20:39:43 49° ESE 20:44:28 10° S
Spot 2 Rocket 3.9 20:36:34 10° SE 20:41:26 47° ENE 20:46:18 10° N
SJ-6B 3.5 20:39:38 10° S 20:43:35 60° W 20:47:39 10° NNW
Cosmos 1602 4.5 20:40:12 10° SSE 20:43:37 31° E 20:47:02 10° NNE
Cosmos 2297 Rocket 3.5 20:38:21 10° NW 20:43:38 42° WSW 20:48:54 10° S
Cosmos 1140 Rocket 4.4 20:41:08 10° N 20:45:43 30° ENE 20:50:02 11° SE
Lacrosse 5 3.1 20:47:02 10° SSE 20:50:43 20° ESE 20:54:24 10° ENE
Meteor 1-18 Rocket 4.4 20:45:57 10° N 20:51:54 88° E 20:57:50 10° S
S3M 4.5 20:49:33 10° N 20:55:26 41° E 21:01:21 10° SSE
ERBS 3.8 20:53:37 10° WSW 20:56:55 41° NW 21:00:14 10° NNE
Resurs 01 Rocket 1.6 20:53:20 10° SSE 20:57:47 81° ENE 21:02:15 10° N
Cosmos 1553 Rocket 4.2 20:52:38 10° N 20:58:32 47° E 21:04:21 10° SSE
Cosmos 1939 Rocket 3.6 20:57:18 14° SE 21:00:14 33° ENE 21:03:48 10° N
DELTA 2 R/B(2) 3.1 21:00:28 10° WNW 21:02:32 62° NNE 21:03:03 34° E
Cosmos 921 Rocket 4.0 20:59:21 10° SSW 21:03:23 49° WNW 21:07:27 10° N
Cosmos 44 3.5 20:59:29 10° NNW 21:03:47 46° ENE 21:06:53 18° SE
Cosmos 2322 Rocket 2.4 20:59:35 10° S 21:05:02 49° ESE 21:10:31 10° NNE
Cosmos 1300 Rocket 4.3 21:03:00 12° SSE 21:06:19 30° E 21:10:03 10° NNE
Okean 1 3.3 21:03:38 10° N 21:07:38 88° W 21:11:37 10° S
Tiangong 1 3.3 21:06:20 10° NW 21:08:15 17° N 21:10:09 10° NE
Cosmos 1536 3.7 21:06:18 16° SE 21:08:47 29° E 21:12:20 10° NNE
Cosmos 2263 Rocket 3.6 21:04:51 10° N 21:09:17 23° ENE 21:11:56 17° E
Envisat 3.0 21:05:21 10° SSE 21:10:23 70° ENE 21:15:27 10° N
Cosmos 1441 Rocket 4.4 21:08:10 10° NNW 21:11:43 42° W 21:15:15 10° SSW
Cosmos 2151 Rocket 3.5 21:08:51 10° S 21:13:12 71° E 21:17:34 10° NNE
Lacrosse 5 rocket 1.6 21:10:27 10° NNW 21:14:01 44° NE 21:15:50 25° ESE
Meteor 1-19 Rocket 4.4 21:08:38 10° N 21:14:24 55° ENE 21:19:14 14° SSE
SL-16 R/B 2.2 21:09:26 10° S 21:15:00 61° ESE 21:20:35 10° NNE
Helios 1B rocket 3.0 21:12:06 10° NNE 21:15:51 34° E 21:18:03 20° SSE
Cosmos 1975 Rocket 4.1 21:12:40 10° NNW 21:16:57 47° W 21:21:11 10° SSW
ATLAS 3B R/B 4.5 21:16:08 10° N 21:20:07 16° NE 21:23:52 10° ENE
NOSS 2-3 (D) 3.7 21:18:36 10° SSW 21:23:03 58° ESE 21:28:04 10° NE
USA 267 4.3 21:17:57 10° SSE 21:23:58 38° SW 21:30:00 10° WNW
GPS 2-05 Rocket1 2.6 21:21:56 10° W 21:25:18 83° N 21:26:29 37° E
CZ-4C R/B 4.2 21:22:53 10° NW 21:29:41 38° WSW 21:36:55 10° S
YAOGAN 6 2.6 21:32:01 41° SE 21:32:58 58° ENE 21:36:28 10° N
USA 186 3.7 21:32:58 10° SSW 21:35:55 30° W 21:38:57 10° NNW
Cosmos 2360 Rocket 2.7 21:37:59 29° SE 21:39:47 37° ESE 21:44:54 10° NE
SJ-11-01 4.2 21:36:56 21° S 21:40:02 85° WSW 21:44:44 10° NNW
Cosmos 1980 Rocket 4.5 21:36:29 10° WSW 21:41:05 26° WNW 21:45:42 10° N
Meteor 1-5 Rocket 4.1 21:37:30 19° SSE 21:41:12 57° E 21:46:23 10° NNE
Cosmos 1536 Rocket 3.4 21:36:54 10° N 21:41:14 90° W 21:43:27 29° S
Meteor 1-13 Rocket 4.4 21:40:38 10° NNW 21:46:35 78° W 21:51:19 17° S
ATLAS 2AS CENTAUR R/B 2.9 21:41:32 10° SSW 21:49:00 72° ESE 21:57:03 10° NE
Cosmos 1850 Rocket 4.0 21:44:05 10° N 21:49:24 65° ENE 21:51:05 42° SE
Helios 1A 2.9 21:48:27 43° SSE 21:49:49 86° ENE 21:54:05 10° NNW
Meteor 2-4 Rocket 3.6 21:47:53 10° N 21:53:28 86° E 21:56:19 31° S
Cosmos 1331 Rocket 4.3 21:54:04 42° E 21:54:04 42° E 21:58:43 10° NNE
NOAA 11 4.2 21:55:47 43° SE 21:57:28 64° ENE 22:02:55 10° N
Cosmos 44 Rocket 4.1 21:53:21 10° NW 21:57:52 44° WSW 21:59:58 28° SSW
Atlas Centaur 2 2.8 21:51:16 10° W 21:59:04 58° S 22:01:15 41° SE
NOSS 2-3 (E) 4.4 21:55:39 10° SW 22:00:10 58° NW 22:05:21 10° NNE
Spot 1 4.4 22:00:04 40° S 22:01:59 87° WSW 22:07:08 10° NNW
Cosmos 883 Rocket 4.4 22:07:22 10° N 22:13:31 87° W 22:15:48 42° S
DELTA 2 R/B (1) 3.6 22:12:03 10° WNW 22:17:36 63° SSW 22:18:06 60° S
Cosmos 1244 Rocket 4.4 22:19:39 59° SE 22:20:24 64° E 22:26:27 10° NNE
Delta 2 Rocket 4.5 22:16:12 10° WSW 22:18:58 38° SW 22:18:58 38° SW
SPOT 5 3.3 22:25:52 52° NE 22:25:52 52° NE 22:29:53 10° N
MetOp-A 4.0 22:27:21 72° S 22:27:55 83° WSW 22:33:18 10° NNW
Lacrosse 5 2.6 22:28:22 10° WSW 22:33:18 53° NW 22:38:17 10° NNE
H-2A R/B 2.4 22:41:34 54° NNE 22:41:34 54° NNE 22:45:34 10° N
Okean 1-7 Rocket 4.4 22:38:32 10° NNW 22:42:09 51° NW 22:42:09 51° NW
ARGOS 3.2 22:45:59 70° W 22:45:59 70° W 22:51:13 10° NNW
ERS-1 Rocket 3.7 22:46:16 44° WSW 22:46:32 45° W 22:51:21 10° NNW
Cosmos 2237 4.5 22:48:18 61° NNE 22:48:18 61° NNE 22:52:57 10° NNE
Cosmos 2315 Rocket 4.3 22:41:14 10° NNW 22:47:24 63° W 22:48:35 53° SW
USA 238 DEB 4.1 22:42:37 10° NNW 22:49:30 50° NE 22:49:51 50° ENE
USA 238 4.1 22:42:43 10° NNW 22:49:36 50° NE 22:49:57 49° ENE
Cosmos 2278 Rocket 4.4 22:47:50 10° NNE 22:49:36 13° NE 22:49:36 13° NE
Cosmos 1607 4.0 22:46:23 10° NNW 22:52:51 75° WSW 22:52:58 75° SW
Lacrosse 5 rocket 4.0 22:50:46 10° W 22:51:33 12° W 22:51:33 12° W
Cosmos 2263 Rocket 2.9 22:47:58 10° NW 22:53:24 46° WSW 22:53:38 45° WSW
Cosmos 1844 Rocket 3.8 22:56:36 10° N 23:00:27 34° NNE 23:00:27 34° NNE
Cosmos 2219 Rocket 4.1 23:14:24 19° NE 23:14:24 19° NE 23:15:57 10° NNE
ATLAS 3B R/B 2.7 23:05:12 10° NNW 23:11:07 69° N 23:11:07 69° N
Cosmos 1745 Rocket 4.4 23:15:35 55° N 23:15:35 55° N 23:20:17 10° N
COSMOS 2428 3.7 23:17:01 40° N 23:17:01 40° N 23:20:37 10° NNE
Terra 3.7 23:24:36 26° N 23:24:36 26° N 23:26:43 10° N
Cosmos 2360 Rocket 4.0 23:19:31 12° WSW 23:23:48 27° WNW 23:28:31 10° N
Cosmos 2333 Rocket 4.3 23:32:48 18° NNE 23:32:48 18° NNE 23:34:14 10° NNE
Atlas Centaur 2 4.5 23:41:40 10° W 23:43:52 19° WSW 23:43:52 19° WSW
Cosmos 2237 Rocket 4.5 23:57:09 16° NNE 23:57:09 16° NNE 23:58:13 10° NNE
